星链-32287 (STARLINK-32287)

导读 | 豆包AI

STARLINK-32287是美国SpaceX公司星链互联网卫星星座中的一员,于2024年8月4日发射入轨。星链计划旨在全球范围内提供低延迟高速宽带服务,尤其服务偏远地区。该卫星属于SpaceX近万颗低轨卫星组网的一部分,依托可重复使用猎鹰火箭发射,助力星链实现全球覆盖,目前星链已在全球六十余国提供服务,持续推动卫星互联网普及。

基本信息
目录编号:
60358
目录名称:
STARLINK-32287
国际标识:
2024-138D
轨道中心:
EARTH
卫星名称:
星链-32287 (STARLINK-32287)
卫星全名:
星链-32287 (STARLINK-32287)
卫星状态:
在轨 (已飞行588 天)
发射日期:
2024-08-04 UTC
国别 :
美国 (US)
星等 :
--
轨道信息
数据来源 国际轨道数据
星历时间: 2026-03-15T04:26:44+0800
18小时前
查看轨道信息
半长轴: 6853.363km
偏心率: 0.0001398
轨道倾角: 53.158°
近地点辐角 100.710°
升交点赤经 285.935°
平近点角 259.406°
近地点: 474.267km
远地点: 476.185km
周期: 94.106分钟
每日圈数: 15.301966
详细信息
卫星平台:
Starlink v2.0 mini
运营商:
太空探索技术公司
运营商所在国:
美国
制造商(研发单位):
太空探索技术公司
制造商所在国:
美国
使用方式:
暂无
卫星简介
星链(Starlink)计划是由太空探索技术公司(SpaceX)提出的一个巨型低轨卫星互联网星座项目,计划在2019年至2024年间在太空搭建由约1.2万颗卫星组成的“星链”网络,其中1584颗将部署在地球上空550千米处的近地轨道,并从2020年开始工作。该卫星仍在工作。
2D轨道图
3D轨道图
轨道高度分析图
轨道倾角分析图
轨道综合分析图
查看轨道综合分析图